カタログに戻る

STARLINK-33845

運用中通信VLEO
NORAD 63495·PAYLOAD·🇺🇸 United States

打ち上げ Apr 7, 2025 から Vandenberg Space Force Base

Loading…

次のパス (今後24時間)

TLE

最新Source: CelesTrak SupGP

元期: Sep 15, 2026, 03:51 UTC

1 63495C 25071C   26258.16090278  .00066391  00000+0  19618-2 0  2587
2 63495  53.1596 338.8753 0001480  87.5473 234.3507 15.34353601    18

AllMySatでSTARLINK-33845をリアルタイム追跡

Download on the App Store